Muncie, IN

9:05 AM EDT on September 19, 2017 (GMT -0400)
Delaware County-Johnson

Weather History for KMIE - March, 2012

Change the Weather History Date:

Sunday, March 18, 2012

  Actual Average Record
Temperature  
Mean Temperature 69 °F 40 °F  
Max Temperature 78 °F 50 °F 78 °F (2012)
Min Temperature 59 °F 31 °F 11 °F (1993)
Degree Days  
Heating Degree Days 0 25  
Month to date heating degree days 279 502  
Since 1 July heating degree days 4147 4885  
Cooling Degree Days 4 0  
Month to date cooling degree days 10 0  
Year to date cooling degree days 10 0  
Growing Degree Days 19 (Base 50)    
Moisture  
Dew Point 54 °F    
Average Humidity 62    
Maximum Humidity 84    
Minimum Humidity 39    
Precipitation  
Precipitation T in 0.10 in 0.88 in (1977)
Month to date precipitation 1.48 1.60  
Year to date precipitation 5.33 6.14  
Sea Level Pressure  
Sea Level Pressure 30.06 in    
Wind  
Wind Speed 7 mph (SSW)    
Max Wind Speed 15 mph    
Max Gust Speed 20 mph    
Visibility 10 miles    
Events      
T = Trace of Precipitation, MM = Missing Value Source: NWS Daily Summary

Daily Weather History Graph

Daily Weather History Graph

Search for Another Location

Airport or City:

Trip Planner

Search our weather history database for the weather conditions in past years. The results will help you decide how hot, cold, wet, or windy it might be!

Date:

Astronomy

Mar. 18, 2012 Rise Set
Actual Time 7:47 AM EDT 7:52 PM EDT
Civil Twilight 7:20 AM EDT 8:19 PM EDT
Nautical Twilight 6:48 AM EDT 8:50 PM EDT
Astronomical Twilight 6:16 AM EDT 9:23 PM EDT
Moon 5:26 AM EDT (3/18) 4:17 PM EDT (3/18)
Length of Visible Light 12h 58m
Length of Day
12h 04m
Waning Crescent, 15% of the Moon is Illuminated
Mar 18
Waning Crescent
Mar 22
New
Mar 30
First Quarter
Apr 6
Full
Apr 13
Last Quarter

Hourly Weather History & Observations

Time (EDT) Temp. Dew Point Humidity Pressure Visibility Wind Dir Wind Speed Gust Speed Precip Events Conditions
12:53 AM 64.9 °F 55.9 °F 73% 30.06 in 10.0 mi SSW 6.9 mph - N/A   Clear
1:53 AM 64.9 °F 55.9 °F 73% 30.06 in 10.0 mi SW 9.2 mph - N/A   Clear
2:53 AM 62.1 °F 55.0 °F 78% 30.06 in 10.0 mi South 8.1 mph - N/A   Clear
3:53 AM 62.1 °F 55.0 °F 78% 30.05 in 10.0 mi SSW 6.9 mph - N/A   Clear
5:53 AM 61.0 °F 54.0 °F 78% 30.08 in 10.0 mi South 8.1 mph - N/A   Mostly Cloudy
6:53 AM 60.1 °F 54.0 °F 80% 30.09 in 10.0 mi South 5.8 mph - 0.00 in   Mostly Cloudy
7:53 AM 60.1 °F 54.0 °F 80% 30.10 in 10.0 mi South 5.8 mph - N/A   Mostly Cloudy
8:53 AM 60.1 °F 55.0 °F 83% 30.11 in 10.0 mi South 6.9 mph - 0.00 in   Mostly Cloudy
9:53 AM 61.0 °F 55.0 °F 81% 30.11 in 10.0 mi SSW 8.1 mph - N/A   Scattered Clouds
10:53 AM 64.9 °F 57.0 °F 75% 30.12 in 10.0 mi SSW 12.7 mph 18.4 mph N/A   Partly Cloudy
11:53 AM 66.9 °F 57.0 °F 70% 30.12 in 10.0 mi SW 11.5 mph - N/A   Overcast
12:53 PM 72.0 °F 55.0 °F 55% 30.09 in 10.0 mi West 8.1 mph - N/A   Clear
1:53 PM 73.9 °F 55.0 °F 52% 30.08 in 10.0 mi SW 10.4 mph - N/A   Mostly Cloudy
2:53 PM 75.0 °F 54.0 °F 48% 30.06 in 10.0 mi Variable 5.8 mph - N/A   Clear
3:53 PM 75.0 °F 53.1 °F 46% 30.04 in 10.0 mi West 10.4 mph - N/A   Clear
4:53 PM 77.0 °F 53.1 °F 43% 30.03 in 10.0 mi Variable 6.9 mph - N/A   Clear
5:53 PM 78.1 °F 52.0 °F 40% 30.01 in 10.0 mi WSW 6.9 mph - N/A   Clear
6:53 PM 77.0 °F 54.0 °F 45% 30.01 in 10.0 mi West 9.2 mph - N/A   Clear
7:53 PM 73.9 °F 53.1 °F 48% 30.02 in 10.0 mi Calm Calm - N/A   Clear
8:53 PM 64.9 °F 53.1 °F 65% 30.04 in 10.0 mi Calm Calm - N/A   Clear
9:53 PM 69.1 °F 54.0 °F 58% 30.05 in 10.0 mi Calm Calm - N/A   Mostly Cloudy
10:53 PM 68.0 °F 54.0 °F 61% 30.05 in 10.0 mi South 3.5 mph - N/A   Mostly Cloudy
11:53 PM 66.9 °F 55.0 °F 66% 30.05 in 10.0 mi South 3.5 mph - N/A   Clear